Regional Weather Roundup
Issued by NWS Newport/Morehead, NC

Current Version | Previous Version | Graphics & Text | Print | Product List | Glossary On
Versions: 1 2 3 4 5 6 7 8 9 10 11 12 13 14 15 16 17 18 19 20 21 22 23 24 25 26 27 28 29 30 31 32 33 34 35 36 37 38 39 40 41 42 43 44 45 46 47 48 49 50
000 ASUS42 KMHX 291022 RWRMHX WEATHER ROUNDUP FOR EASTERN NORTH CAROLINA NATIONAL WEATHER SERVICE NEWPORT/MOREHEAD CITY NC 600 AM EDT TUE JUL 29 2014 NOTE: "FAIR" INDICATES FEW OR NO CLOUDS BELOW 12,000 FEET WITH NO SIGNIFICANT WEATHER AND/OR OBSTRUCTIONS TO VISIBILITY NCZ015>017-031-032-045>047-102-103-291100- NORTH COAST CITY SKY/WX TMP DP RH WIND PRES REMARKS EDENTON CLOUDY 66 60 80 NE3 29.90R ELIZABETH CITY MOCLDY 67 60 78 NW6 29.88R KITTY HAWK CLOUDY 73 63 71 N5 29.86S MANTEO NOT AVBL $$ NCZ045>047-081-094-103-104-291100- CENTRAL COAST CITY SKY/WX TMP DP RH WIND PRES REMARKS FRISCO PTCLDY 77 65 66 N5 29.86R SWANQUARTER N/A 68 N/A N/A NW1 29.82S $$ NCZ095-097-098-100-101-291100- SOUTHERN COAST CITY SKY/WX TMP DP RH WIND PRES REMARKS BEAUFORT CLEAR 70 64 81 N5 29.87S CEDAR ISLAND N/A 77 N/A N/A N12 29.91S JACKSONVILLE PTCLDY 70 62 76 N5 29.87R NEWPORT NOT AVBL PINEY ISLAND MOSUNNY 75 66 73 N7 29.87R WILMINGTON PTCLDY 69 63 81 NE6 29.87R $$ NCZ011>013-027>030-043-044-078>080-089-090>093-098-291100- COASTAL PLAIN CITY SKY/WX TMP DP RH WIND PRES REMARKS AHOSKIE CLEAR 60 58 94 CALM 29.91R CLINTON MOCLDY 69 62 79 CALM 29.91R ELIZABETHTOWN PTCLDY 67 64 88 CALM 29.90R GOLDSBORO CLOUDY 69 62 79 N5 29.89R GREENVILLE CLOUDY 66 61 82 CALM 29.93R HAVELOCK PTCLDY 70 62 76 N6 29.89R KENANSVILLE PTCLDY 64 61 88 CALM 29.91R KINSTON CLEAR 67 62 85 N3 29.91R NEW BERN CLEAR 70 62 76 N5 29.89R RICHLANDS PTCLDY 66 59 77 CALM 29.89R ROANOKE RAPIDS NOT AVBL ROCKY MOUNT CLOUDY 67 59 75 N5 29.91R WASHINGTON CLOUDY 66 61 82 N3 29.90R WHITEVILLE PTCLDY 69 63 81 CALM 29.89R $$ AMZ130-135-150-152-154-156-158-170-250-252-270-ANZ085-086-088-633-658-670-291100- MARINE OBSERVATIONS STATION/POSITION TIME TEMP WIND PRES WAVE SWELL AIR SEA DIR/SP/G HT/PER HT/PER (UTC) (F) (DEG/KT/KT) (MB) (FT/S) (FT/S) CHESAPEAKE LIGHT NOT AVBL BUOY 44014 1000 75 78 350/ 12/ 14 1010.4 3/ 5 2/ 7 DUCK 1000 71 66 340/ 9/ 10 1010.7 2E DUCK 0900 N/A 3/ 4 OREGON INLET 1000 74 79 350/ 7/ 9 1011.0 BUOY 44095 1000 78 N/A 3/ 7 20E OREGON INLET NOT AVBL HATTERAS CG 1000 78 81 20/ 5/ 11 1011.4 DIAMOND BUOY 1000 VRB 10/ 12 1010.5 3/ 8 3/ 8 CAPE LOOKOUT 1000 74 360/ 8/ 9 1011.1 BEAUFORT LAB 1000 74 82 10/ 6/ 7 1011.1 30 SE NEW RIVER 1000 79 81 30/ 16/ 19 1010.7 4/ 7 2/ 7 5 SE WRIGHTSVILL 1000 74 81 40/ 17/ 19 N/A BUOY 41002 0933 82 81 250/ 14/ 19 1013.6 6/ 7 5/ 7 BUOY 41004 1000 82 84 20/ 14/ 16 1009.3 4/ 6 2/ 6 $$

USA.gov is the U.S. government's official web portal to all federal, state and local government web resources and services.